Lapse_Rate
8.1 7.9 7.5 7.5 7.7 7.7 7.7 7.4 6.9 6.6 6.4 6.2 5.6 5.5 5.7 5.5 5.5 5.5 5.6 5.6 5.2 5.1 5.2 5.2 5.2 5.3 5.4 5.4 5.3 5.2 5.2 5.3 5.1 5.3 5.0 5.2 5.0 5.2 5.4 4.9 4.9 4.9 4.9
8.0 8.0 7.6 7.4 7.5 7.6 7.5 7.4 7.1 6.9 6.5 6.3 5.7 5.6 5.6 5.5 5.6 5.6 5.6 5.7 5.5 5.5 5.3 5.4 5.4 5.5 5.5 5.4 5.5 5.5 5.3 5.3 5.2 5.3 5.5 5.4 5.4 5.4 5.5 5.3 5.3 5.2 5.1
8.0 7.9 7.6 7.3 7.5 7.4 7.2 7.2 7.1 7.1 6.9 6.5 6.3 5.8 5.5 5.5 5.7 5.5 5.5 5.9 5.8 5.6 5.5 5.4 5.5 5.3 5.4 5.5 5.5 5.5 5.3 5.4 5.1 5.2 5.5 5.2 5.4 5.5 5.4 5.5 5.8 5.6 5.6
7.8 8.1 7.8 7.4 7.4 7.3 7.3 7.1 6.9 6.9 6.9 6.7 6.2 6.1 6.0 5.9 5.9 6.0 5.9 6.0 5.9 5.6 5.5 5.4 5.5 5.6 5.5 5.5 5.7 5.7 5.4 5.3 5.3 5.1 5.5 5.7 5.4 5.9 5.6 5.8 5.9 5.9 5.8
7.9 7.9 7.6 7.5 7.3 7.1 7.0 6.9 6.8 7.0 7.0 6.8 6.5 6.4 6.3 6.2 6.2 6.1 6.0 5.7 5.6 5.5 5.6 5.5 5.6 5.7 5.5 5.5 5.6 5.7 5.5 5.4 5.6 5.4 5.5 5.7 5.9 5.9 5.9 5.9 5.7 6.0 6.1
7.1 7.6 7.4 7.2 7.2 6.9 6.8 6.7 6.7 6.6 6.6 6.5 6.5 6.7 6.6 6.5 6.4 6.2 6.0 5.7 5.4 5.3 5.5 5.6 5.4 5.2 5.4 5.4 5.5 5.7 5.7 5.4 5.4 5.5 5.6 5.6 5.9 6.0 6.0 5.9 5.9 5.9 5.8
6.6 6.6 6.5 6.6 6.7 6.6 6.4 6.4 6.4 6.4 6.3 6.2 6.2 6.4 6.6 6.7 6.5 6.4 6.2 5.9 6.0 6.1 6.1 6.0 5.8 5.9 6.0 5.8 5.9 6.0 5.9 5.9 5.6 5.7 5.4 5.2 5.3 5.7 5.7 5.7 5.5 5.8 5.8
6.6 6.8 6.4 6.4 6.3 6.3 6.1 6.1 6.2 6.1 6.0 5.9 6.0 5.8 6.0 6.1 6.0 5.9 5.9 5.8 6.0 6.0 6.1 6.2 6.2 6.2 6.1 6.1 6.3 6.1 6.0 6.0 5.9 6.0 6.0 5.8 5.8 5.9 6.1 6.2 6.1 6.0 5.7
6.4 6.3 6.0 6.1 6.0 6.1 6.3 5.8 5.7 5.9 6.1 6.1 6.0 5.9 5.9 5.9 6.1 6.1 6.0 5.9 5.9 5.9 5.9 5.9 6.1 6.1 6.1 6.2 6.2 6.2 6.1 6.1 6.0 6.1 6.0 6.0 5.7 5.5 5.4 5.6 5.8 5.9 5.9
5.7 5.8 4.1 5.5 5.8 5.9 5.8 5.8 5.2 6.0 6.1 6.2 6.3 6.2 6.1 6.1 6.2 6.2 6.2 6.2 6.0 5.8 5.8 6.0 6.1 6.3 6.4 6.3 6.3 6.2 6.2 6.2 6.1 6.1 6.2 6.3 6.3 6.3 6.1 5.4 5.3 5.5 5.7
4.1 3.7 3.9 4.3 4.0 4.2 4.3 5.1 5.5 5.7 5.9 6.2 6.1 6.1 6.0 5.9 6.1 6.1 6.1 6.1 6.0 5.9 5.9 5.8 5.9 6.0 6.1 6.1 6.2 6.2 6.3 6.4 6.4 6.5 6.5 6.4 6.4 6.3 6.2 6.1 5.9 5.6 5.7
4.1 3.5 3.7 3.8 3.9 3.8 4.2 5.0 5.3 5.6 5.8 5.8 5.6 5.8 5.8 5.8 5.9 6.0 6.0 6.1 6.2 6.1 6.2 6.1 6.1 6.2 6.2 6.1 6.1 6.2 6.3 6.3 6.3 6.3 6.2 6.2 6.1 6.0 5.9 5.8 5.6 5.3 5.1
4.8 4.7 4.0 3.7 4.1 4.2 4.0 4.6 4.9 5.1 5.5 5.7 5.5 5.7 5.6 5.6 5.8 6.1 6.4 6.3 6.4 6.6 6.4 6.3 6.1 5.9 5.8 5.6 5.6 5.6 5.6 5.5 5.6 5.8 5.9 5.8 5.8 5.7 5.6 5.5 5.3 5.2 5.0
5.3 5.3 5.3 5.3 5.3 5.1 5.1 5.2 5.4 5.5 5.8 5.8 5.8 5.6 5.7 5.9 6.3 6.5 6.4 6.3 6.2 6.0 5.8 5.6 5.5 5.4 5.4 5.3 5.2 5.3 5.4 5.4 5.5 5.5 5.3 5.2 5.0 5.0 4.8 4.8 4.7 4.8 5.0
5.4 5.4 5.4 5.4 5.4 5.5 5.6 5.8 5.9 5.9 5.8 5.8 5.8 5.8 5.8 5.7 5.6 5.4 5.3 5.1 5.1 5.0 5.0 5.1 5.1 5.2 5.3 5.4 5.5 5.5 5.4 5.3 5.2 5.0 4.9 4.7 4.6 4.6 4.6 4.7 4.8 4.8 4.7
5.7 5.6 5.7 5.7 5.7 5.7 5.9 6.0 5.9 5.7 5.5 5.3 5.2 5.1 5.0 5.0 5.0 4.9 4.9 4.8 4.7 4.7 4.9 5.1 5.2 5.3 5.3 5.3 5.3 5.2 5.2 5.1 5.0 4.8 4.6 4.5 4.6 4.7 4.6 4.5 4.4 4.3 4.2
5.6 5.6 5.6 5.7 5.6 5.6 5.5 5.4 5.3 5.2 5.0 4.9 4.8 4.8 4.8 4.7 4.8 4.8 4.8 4.9 5.0 5.0 4.9 4.9 4.9 5.0 5.0 5.0 5.0 5.0 5.0 4.8 4.6 4.4 4.3 4.4 4.4 4.4 4.4 4.3 4.2 4.2 4.1
5.5 5.4 5.2 5.1 5.1 5.1 5.0 4.9 4.8 4.8 4.7 4.7 4.7 4.7 4.7 4.8 4.8 4.8 4.8 4.8 4.7 4.7 4.7 4.7 4.7 4.6 4.6 4.6 4.5 4.4 4.3 4.2 4.2 4.3 4.3 4.3 4.1 4.1 4.1 4.0 3.9 3.9 3.9
5.1 5.1 5.0 4.9 4.8 4.8 4.7 4.6 4.6 4.6 4.6 4.7 4.6 4.6 4.6 4.7 4.7 4.7 4.7 4.6 4.5 4.4 4.3 4.3 4.3 4.2 4.1 4.1 4.0 4.1 4.1 4.2 4.1 4.1 4.0 4.0 3.9 3.8 3.7 3.6 3.7 3.7 3.6
4.8 4.7 4.5 4.4 4.4 4.3 4.2 4.2 4.2 4.2 4.3 4.3 4.4 4.4 4.4 4.4 4.3 4.3 4.4 4.4 4.4 4.2 4.1 4.0 3.9 4.0 3.9 3.9 3.9 3.9 3.9 3.9 3.9 3.8 3.8 3.8 3.7 3.6 3.5 3.5 3.5 3.4 3.2
4.3 4.3 4.3 4.3 4.3 4.3 4.3 4.3 4.3 4.3 4.3 4.4 4.4 4.3 4.3 4.4 4.3 4.2 4.2 4.2 4.2 4.1 4.0 4.0 3.9 3.9 3.8 3.8 3.8 3.8 3.7 3.7 3.7 3.7 3.7 3.7 3.7 3.6 3.5 3.4 3.2 3.1 3.1
4.2 4.2 4.2 4.3 4.3 4.4 4.5 4.5 4.6 4.6 4.6 4.5 4.5 4.4 4.4 4.4 4.4 4.3 4.3 4.2 4.0 3.9 3.9 3.8 3.8 3.8 3.8 3.8 3.8 3.7 3.7 3.6 3.6 3.6 3.6 3.6 3.5 3.5 3.3 3.3 3.3 3.3 3.3
4.4 4.4 4.5 4.6 4.5 4.5 4.6 4.6 4.6 4.6 4.6 4.7 4.6 4.5 4.5 4.4 4.3 4.2 4.1 3.9 3.9 3.8 3.7 3.8 3.8 3.8 3.8 3.7 3.7 3.7 3.6 3.6 3.6 3.6 3.6 3.6 3.5 3.5 3.5 3.5 3.5 3.6 3.7
4.8 4.8 4.7 4.7 4.7 4.7 4.6 4.6 4.6 4.6 4.7 4.7 4.6 4.4 4.2 4.1 4.0 4.0 3.9 3.8 3.8 3.8 3.8 3.7 3.7 3.8 3.7 3.6 3.6 3.6 3.5 3.6 3.6 3.6 3.7 3.6 3.7 3.8 4.0 4.1 4.3 4.4 4.4
4.8 4.8 4.8 4.7 4.7 4.7 4.6 4.6 4.5 4.3 4.2 4.1 4.1 4.0 3.9 3.8 3.7 3.7 3.7 3.6 3.6 3.7 3.7 3.7 3.7 3.7 3.7 3.7 3.7 3.6 3.6 3.7 3.7 3.7 3.9 4.1 4.4 4.6 4.7 4.8 4.7 4.6 4.5
4.9 4.9 4.9 4.8 4.8 4.7 4.6 4.5 4.3 4.3 4.2 4.0 3.9 3.7 3.7 3.6 3.6 3.6 3.7 3.7 3.7 3.8 3.8 3.9 3.9 3.9 3.8 3.8 3.7 3.7 3.8 3.9 4.2 4.4 4.7 4.9 5.0 5.0 4.8 4.7 4.6 4.6 4.6
Wind_Speed
9 11 10 7 9 9 7 7 6 5 5 7 9 10 9 11 11 11 10 9 10 8 8 9 11 9 8 7 4 5 8 9 9 9 8 9 10 11 11 14 18 18 20
11 10 7 8 8 9 7 7 6 6 4 4 4 10 10 9 10 11 11 11 12 12 10 10 12 9 13 11 7 10 10 7 5 12 10 9 12 14 15 15 15 26 24
10 7 5 6 9 9 8 7 7 6 6 4 4 4 8 9 10 10 10 10 11 11 13 12 13 12 11 8 9 9 8 8 9 9 14 13 13 13 15 18 18 18 25
8 10 8 4 5 4 3 6 8 7 6 6 5 4 5 4 1 3 9 9 10 11 12 13 14 16 16 13 11 14 13 13 14 14 14 14 13 15 13 13 12 12 13
12 11 10 9 10 10 10 10 10 12 11 11 3 12 12 12 9 9 6 4 12 12 11 8 10 12 12 15 12 14 16 14 12 13 13 13 12 11 13 11 13 12 13
12 11 9 10 10 11 11 11 12 12 13 13 14 13 12 9 15 14 10 5 7 8 8 10 11 16 13 14 12 11 12 13 14 11 11 12 15 14 12 10 11 12 12
12 10 9 10 11 10 12 13 13 12 12 13 12 12 13 12 19 16 12 6 9 10 10 9 8 8 12 11 11 9 18 19 11 5 7 8 6 7 7 8 9 6 5
12 11 10 11 12 12 12 14 12 11 12 11 11 11 12 12 21 18 9 12 11 12 12 11 9 10 13 12 8 5 12 15 14 10 11 9 8 8 5 3 4 5 2
13 13 12 13 15 13 11 15 11 10 11 11 11 11 12 14 22 20 12 11 12 13 12 15 12 12 19 18 5 10 10 9 16 22 22 19 20 22 18 3 5 2 1
13 14 11 12 12 11 12 13 11 11 11 9 12 13 16 15 23 20 12 8 10 8 11 12 21 16 20 19 11 9 10 7 6 7 7 11 15 18 23 13 6 4 2
12 11 12 13 13 13 14 12 11 10 11 12 13 13 16 15 17 23 18 10 8 8 8 9 10 21 22 22 20 12 9 7 8 6 6 6 7 8 8 13 13 8 5
13 14 13 13 11 11 13 11 11 10 12 12 11 10 9 13 19 22 23 20 14 10 9 7 9 19 22 22 15 16 10 5 6 7 7 8 8 7 6 8 11 12 12
14 15 14 14 13 12 12 10 8 9 8 8 7 8 8 7 7 15 17 18 17 10 8 12 16 16 17 14 20 19 13 7 7 7 7 7 6 5 6 5 3 3 8
14 14 13 13 13 13 11 9 9 7 8 7 6 7 7 8 8 7 6 6 6 6 6 6 6 7 10 10 9 10 7 7 7 7 6 6 5 6 7 7 6 6 5
11 11 11 11 13 13 13 10 10 12 12 7 8 8 7 8 8 11 10 6 6 5 4 5 6 6 7 7 8 8 8 8 8 7 7 7 7 7 7 7 6 6 5
10 8 7 7 8 8 9 10 21 21 21 20 20 12 8 12 13 15 13 11 9 6 6 6 7 7 7 7 7 7 8 9 8 7 7 7 7 7 7 6 6 6 6
9 8 7 8 7 7 6 6 7 11 19 18 18 17 16 12 9 9 7 13 14 7 6 6 7 7 6 7 7 7 7 7 8 7 7 7 7 6 7 7 7 7 6
10 11 7 6 6 6 6 5 4 3 5 6 11 11 14 14 14 12 5 4 7 8 7 6 6 6 6 6 6 7 7 7 7 7 7 7 7 7 7 7 6 6 7
7 6 6 6 6 6 5 5 5 5 5 5 5 6 6 8 12 14 12 7 7 7 6 7 6 6 6 6 6 6 6 6 6 6 6 6 7 7 6 6 7 7 6
7 8 7 5 5 5 5 5 5 5 5 6 5 6 5 5 6 7 8 7 7 6 6 6 6 6 6 6 6 6 6 6 6 6 6 6 6 6 6 7 7 7 7
4 5 5 5 5 4 4 5 4 5 5 5 6 6 8 5 6 6 6 6 6 6 6 6 6 6 6 6 6 6 6 6 6 7 6 6 6 6 6 6 7 7 7
4 5 5 4 5 5 4 5 5 5 5 4 5 4 5 5 5 5 6 6 5 7 8 6 5 6 7 6 7 6 6 6 6 6 7 7 6 6 6 6 6 7 7
5 4 4 4 4 2 4 4 4 4 4 4 4 4 5 5 5 5 5 5 6 7 7 8 8 7 9 8 8 8 6 6 8 10 6 7 7 6 6 7 7 6 7
4 4 4 4 4 4 4 4 4 4 4 4 4 3 4 3 4 3 4 5 6 6 6 6 5 5 6 8 8 8 9 9 10 10 11 7 6 7 7 7 7 8 7
5 4 4 4 3 3 2 3 3 3 3 3 3 3 3 3 3 3 4 5 4 5 4 3 4 6 6 6 4 5 7 9 10 10 10 10 7 7 6 5 6 7 8
4 4 3 3 3 3 3 2 2 3 3 3 3 3 3 3 3 3 4 3 3 5 4 5 5 5 6 7 4 6 8 9 10 10 8 9 7 6 6 8 10 6 8
Wind_Direction
173 151 175 175 177 161 175 178 192 155 164 189 183 173 173 180 179 185 188 178 185 193 202 209 224 224 235 236 202 245 256 245 257 260 239 253 272 279 277 247 245 241 243
172 149 175 165 171 167 166 161 165 153 155 162 204 176 175 174 176 184 186 191 195 201 200 205 221 224 234 233 223 222 234 230 233 259 254 257 254 259 258 257 261 260 257
147 158 137 149 163 161 172 169 166 158 155 162 188 183 170 179 183 191 195 192 196 197 207 213 220 219 229 225 223 225 229 235 230 244 260 254 255 254 256 254 252 252 255
99 81 76 79 106 110 83 150 163 166 164 169 182 166 178 179 72 227 203 202 206 214 222 219 224 227 228 225 223 230 237 242 243 244 253 258 251 252 247 254 252 247 253
77 74 64 60 67 64 54 47 56 62 53 49 65 62 64 55 29 4 332 299 222 219 219 232 240 241 234 234 242 247 248 249 251 249 250 256 256 253 246 250 254 260 257
67 68 65 61 59 67 62 57 56 56 57 69 65 67 59 47 9 10 3 352 11 14 16 23 22 48 16 17 3 331 301 294 277 266 270 274 277 276 276 287 284 278 274
65 61 69 79 73 66 76 66 56 54 55 59 64 66 56 31 11 6 1 47 64 52 36 21 10 20 13 349 340 351 57 39 39 333 294 324 349 355 329 314 323 343 351
63 62 62 73 75 67 70 80 72 65 62 58 61 62 54 28 12 3 3 81 75 65 49 35 33 21 6 344 325 49 61 51 44 58 63 53 42 8 345 284 304 296 232
56 50 50 59 73 72 70 74 79 78 75 71 60 51 53 39 20 11 81 80 74 63 54 41 32 28 8 352 12 96 81 69 57 66 71 66 52 42 31 19 16 340 323
53 55 50 59 65 74 75 77 74 80 82 80 75 60 53 46 32 27 61 76 83 79 64 52 42 41 35 28 59 73 74 59 62 58 53 51 47 42 40 39 10 37 9
68 67 61 65 67 63 66 66 69 73 78 75 72 67 64 46 43 39 37 79 86 81 71 59 50 51 52 54 57 60 66 76 67 64 57 50 48 48 43 41 36 36 44
68 66 61 64 61 67 67 66 67 69 76 75 71 67 64 61 56 55 53 56 69 78 77 70 65 61 57 51 53 58 66 68 59 53 49 42 37 31 34 46 49 53 53
75 76 70 63 57 49 60 60 63 65 69 72 70 69 58 42 55 64 65 66 67 75 77 79 67 58 55 53 51 47 36 37 42 48 43 39 32 20 15 28 52 129 89
80 76 69 68 71 72 67 53 43 51 65 56 62 70 66 52 37 25 55 63 73 78 82 70 76 76 71 61 50 43 42 41 40 38 36 31 24 29 26 19 17 17 11
79 83 85 84 83 73 58 53 64 55 47 59 62 48 57 53 42 48 42 45 49 31 62 57 51 46 47 46 51 43 39 35 35 33 29 24 26 18 24 15 14 12 20
77 69 66 79 89 89 85 76 60 62 59 56 52 58 70 59 55 54 50 47 37 39 55 51 49 48 44 45 44 46 40 36 30 28 28 20 22 26 12 19 13 11 6
61 74 69 61 61 60 78 104 98 77 72 58 61 59 58 53 47 37 51 57 34 55 62 55 50 44 44 44 40 41 43 37 24 30 29 20 14 17 11 20 12 3 2
69 56 61 66 72 71 71 68 74 98 89 97 65 62 55 52 48 43 18 85 61 55 54 54 52 47 43 45 42 37 36 27 26 24 29 22 5 15 15 6 24 7 348
59 66 76 79 72 73 77 74 74 74 72 73 113 93 82 80 61 50 48 55 60 58 53 52 45 40 35 42 31 30 45 32 23 21 22 18 8 3 12 360 0 354 332
68 46 50 62 65 65 61 62 66 67 71 69 56 28 10 47 49 51 51 48 52 48 45 51 42 40 35 25 33 27 17 33 18 13 18 16 7 356 355 358 358 348 355
72 73 39 61 56 58 64 65 69 70 70 72 65 34 345 45 52 50 52 47 42 44 36 37 41 35 26 28 17 25 24 19 20 4 11 3 352 354 351 351 347 345 346
49 52 52 51 51 51 59 65 65 68 67 68 81 91 4 49 53 50 49 43 35 31 25 31 34 39 35 18 14 13 19 17 9 8 356 346 347 349 348 340 349 348 344
47 45 54 65 73 86 68 57 56 62 64 57 49 46 39 39 35 29 40 22 28 30 28 15 30 23 23 19 15 16 17 11 359 356 356 340 340 359 330 338 339 340 349
40 53 53 55 28 45 50 74 111 76 30 40 43 46 38 31 29 32 32 22 360 16 19 18 32 42 13 356 2 5 32 6 350 350 346 329 329 350 335 337 329 338 324
31 37 34 35 29 47 69 41 39 31 30 16 18 12 13 1 12 7 17 12 6 339 6 340 5 351 2 343 343 343 20 352 346 338 329 321 324 317 306 316 326 323 321
28 23 22 18 31 19 17 13 17 9 352 358 342 337 338 338 336 345 356 323 342 336 317 315 320 336 326 308 51 19 343 335 337 337 326 308 315 324 333 333 321 326 308